Weather reports worldwide

Advertisment
Ouessant, France (7100): temperature & dewpoint: 17.04.2018 15:00:00 - 23.04.2018 15:00:00 (CEST)Ouessant, France (7100): wind speed & gusts: 17.04.2018 15:00:00 - 23.04.2018 15:00:00 (CEST)Ouessant, France (7100): wind direction: 17.04.2018 15:00:00 - 23.04.2018 15:00:00 (CEST)Ouessant, France (7100): reduced air pressure: 17.04.2018 15:00:00 - 23.04.2018 15:00:00 (CEST)Ouessant, France (7100): visibility: 17.04.2018 15:00:00 - 23.04.2018 15:00:00 (CEST)Ouessant, France (7100): precipitation: 17.04.2018 15:00:00 - 23.04.2018 15:00:00 (CEST)
Date & Time tt [°C] td [°C] ff [km/h] ff [kn] fx [km/h] fx [kn] dd ppp [hPa] vv [km] rr [mm]
23.04.2018 15:00:00 13,8 6,2 23 12 33 18 WSW 1021,7 - 0,0
23.04.2018 14:00:00 14,2 6,5 21 11 32 17 WSW 1021,8 25 0,0
23.04.2018 13:00:00 12,9 6,9 19 10 24 13 WNW 1021,9 - 0,0
23.04.2018 12:00:00 11,9 6,6 16 9 27 15 WNW 1022,0 - 0,0
23.04.2018 11:00:00 11,9 6,2 15 8 24 13 WNW 1021,3 25 0,0
23.04.2018 10:00:00 11,1 6,4 12 6 18 10 W 1021,0 - 0,0
23.04.2018 09:00:00 10,6 5,8 18 10 29 15 WNW 1020,8 - 0,0
23.04.2018 08:00:00 9,9 6,8 16 9 34 19 W 1020,1 25 0,0
23.04.2018 07:00:00 9,8 8,4 20 11 28 15 WNW 1019,5 - 0,0
23.04.2018 06:00:00 8,9 7,8 16 9 27 15 WNW 1019,2 - 0,0
23.04.2018 05:00:00 9,3 8,4 21 11 27 15 WNW 1019,1 22 0,0
23.04.2018 04:00:00 9,2 8,3 17 9 26 14 WNW 1018,6 - 0,0
23.04.2018 03:00:00 9,7 8,6 21 11 28 15 NW 1018,9 - 0,0
23.04.2018 02:00:00 9,8 8,6 22 12 29 16 NW 1018,9 20 0,0
23.04.2018 01:00:00 10,3 8,7 20 11 27 14 NNW 1018,3 - 0,0
23.04.2018 00:00:00 10,7 8,5 22 12 32 18 NNW 1018,1 - 0,0
22.04.2018 23:00:00 10,9 9,5 22 12 31 17 NNW 1017,2 20 0,0
22.04.2018 22:00:00 11,5 10,7 16 9 25 13 WNW 1016,3 - 0,0
22.04.2018 21:00:00 11,8 10,9 14 8 22 12 W 1015,7 - 0,0
22.04.2018 20:00:00 11,8 10,7 19 11 28 15 W 1015,0 12 0,0
22.04.2018 19:00:00 12,6 11,3 17 9 24 13 W 1014,5 - 0,0
22.04.2018 18:00:00 13,3 11,5 18 10 29 16 W 1013,9 - 0,0
22.04.2018 17:00:00 14,2 11,5 21 11 32 17 W 1013,8 15 0,0
22.04.2018 16:00:00 14,2 11,2 25 14 35 19 W 1013,8 - 0,0
22.04.2018 15:00:00 14,4 10,8 24 13 32 17 W 1013,7 - 0,0
22.04.2018 14:00:00 14,0 10,4 22 12 29 16 W 1013,2 20 0,0
22.04.2018 13:00:00 13,4 10,2 21 11 27 14 W 1012,8 - 0,0
22.04.2018 12:00:00 13,3 10,7 16 8 29 15 W 1012,9 - 0,0
22.04.2018 11:00:00 13,0 11,9 19 11 27 15 W 1012,8 11 0,0
22.04.2018 10:00:00 12,1 11,8 11 6 32 17 SW 1012,6 - 0,0
22.04.2018 09:00:00 10,6 10,3 28 15 39 21 W 1012,0 - 0,0
22.04.2018 08:00:00 10,3 10,0 19 11 25 13 WSW 1011,8 0,1 0,0
22.04.2018 07:00:00 10,4 10,1 9 5 25 14 WSW 1011,3 - 0,0
22.04.2018 06:00:00 10,2 9,9 22 12 27 15 WSW 1011,1 - 0,2
22.04.2018 05:00:00 11,7 11,4 22 12 29 16 SW 1011,4 0,2 0,0
22.04.2018 04:00:00 11,6 11,3 23 12 37 20 S 1011,8 - 0,0
22.04.2018 03:00:00 11,8 11,5 24 13 32 17 S 1012,3 - 0,0
22.04.2018 02:00:00 11,8 11,3 25 13 37 20 S 1012,6 8 0,2
22.04.2018 01:00:00 11,9 11,4 13 7 24 13 S 1012,9 - 0,0
22.04.2018 00:00:00 12,5 11,9 16 9 30 16 S 1013,3 - 0,0
21.04.2018 23:00:00 12,6 12,0 16 9 23 12 S 1013,9 8 0,0
21.04.2018 22:00:00 12,4 11,5 11 6 39 21 SW 1013,9 - 0,0
21.04.2018 21:00:00 13,6 12,2 32 18 39 21 S 1013,3 - 0,0
21.04.2018 20:00:00 15,6 11,8 26 14 37 20 S 1013,8 8 0,0
21.04.2018 19:00:00 17,3 12,4 29 15 40 22 SSW 1013,9 - 0,0
21.04.2018 18:00:00 18,3 12,9 27 15 35 19 S 1014,1 - 0,0
21.04.2018 17:00:00 20,6 13,3 14 8 23 12 S 1014,7 - 0,0
21.04.2018 16:00:00 21,3 13,2 9 5 24 13 SSE 1015,3 - 0,0
21.04.2018 15:00:00 21,7 13,8 18 10 25 13 SSW 1015,8 - 0,0
21.04.2018 14:00:00 20,7 13,6 13 7 28 15 S 1016,1 8 0,0
21.04.2018 13:00:00 19,9 13,1 11 6 18 10 SSE 1016,8 - 0,0
21.04.2018 12:00:00 19,1 13,3 8 5 20 11 ESE 1017,0 - 0,0
21.04.2018 11:00:00 18,0 13,3 15 8 22 12 SE 1017,2 8 0,0
21.04.2018 10:00:00 13,0 10,5 17 9 24 13 E 1017,8 - 0,0
21.04.2018 09:00:00 14,7 12,7 11 6 21 12 ENE 1017,8 - 0,0
21.04.2018 08:00:00 11,7 10,4 18 10 25 13 E 1018,2 8 0,0
21.04.2018 07:00:00 10,9 10,1 21 11 27 15 E 1018,3 - 0,0
21.04.2018 06:00:00 10,6 9,8 21 11 25 13 E 1018,6 - 0,0
21.04.2018 05:00:00 10,5 9,9 18 10 27 14 ENE 1019,2 10 0,0
21.04.2018 04:00:00 10,5 9,9 21 12 27 15 ENE 1019,7 - 0,0
21.04.2018 03:00:00 10,5 9,7 22 12 33 18 NE 1020,3 - 0,0
21.04.2018 02:00:00 10,5 9,7 23 12 30 16 NE 1020,9 10 0,0
21.04.2018 01:00:00 10,6 9,8 21 11 28 15 NNE 1021,3 - 0,0
21.04.2018 00:00:00 10,6 9,7 19 11 30 16 NNE 1021,7 - 0,0
20.04.2018 23:00:00 10,7 9,8 22 12 29 16 NNE 1021,9 10 0,0
20.04.2018 22:00:00 10,7 9,6 21 11 28 15 NNE 1021,9 - 0,0
20.04.2018 21:00:00 10,9 9,5 20 11 27 15 NNE 1021,9 - 0,0
20.04.2018 20:00:00 11,9 9,6 18 10 30 16 N 1022,0 7 0,0
20.04.2018 19:00:00 12,8 10,0 23 12 34 18 NNE 1022,2 - 0,0
20.04.2018 18:00:00 12,3 10,0 25 13 38 20 N 1022,4 - 0,0
20.04.2018 17:00:00 13,1 10,6 21 12 34 18 NNE 1022,6 7 0,0
20.04.2018 16:00:00 13,0 10,7 24 13 35 19 N 1023,0 - 0,0
20.04.2018 15:00:00 12,4 10,5 26 14 37 20 N 1023,3 - 0,0
20.04.2018 14:00:00 12,2 10,6 27 15 40 22 N 1023,9 7 0,0
20.04.2018 13:00:00 11,8 10,4 29 15 39 21 N 1024,0 - 0,0
20.04.2018 12:00:00 11,5 10,4 27 15 37 20 N 1024,2 - 0,0
20.04.2018 11:00:00 11,2 10,6 26 14 35 19 N 1024,2 7 0,0
20.04.2018 10:00:00 10,7 10,2 23 12 32 17 N 1024,0 - 0,0
20.04.2018 09:00:00 10,4 10,1 21 12 29 16 N 1023,8 - 0,0
20.04.2018 08:00:00 10,1 9,8 21 12 27 15 N 1023,7 8 0,0
20.04.2018 07:00:00 10,1 9,8 21 12 28 15 N 1023,2 - 0,0
20.04.2018 06:00:00 10,1 9,8 20 11 27 15 N 1023,2 - 0,2
20.04.2018 05:00:00 10,2 9,9 20 11 32 18 N 1023,3 12 0,0
20.04.2018 04:00:00 10,2 9,9 23 13 32 18 N 1023,4 - 0,0
20.04.2018 03:00:00 10,2 9,9 25 14 34 18 N 1023,6 - 0,0
20.04.2018 02:00:00 10,0 9,7 21 11 32 17 N 1023,8 8 0,0
20.04.2018 01:00:00 9,4 9,1 23 12 32 17 N 1023,7 - 0,0
20.04.2018 00:00:00 9,1 8,8 23 12 29 16 N 1024,0 - 0,0
19.04.2018 23:00:00 9,4 9,1 23 12 32 17 N 1024,3 0,1 0,0
19.04.2018 22:00:00 9,5 9,2 24 13 34 18 N 1023,9 - 0,0
19.04.2018 21:00:00 9,7 9,4 24 13 35 19 N 1023,8 - 0,0
19.04.2018 20:00:00 9,7 9,4 24 13 35 19 NNE 1023,8 0,1 0,0
19.04.2018 19:00:00 10,1 9,8 22 12 37 20 N 1023,7 - 0,0
19.04.2018 18:00:00 10,3 9,8 26 14 37 20 N 1023,6 - 0,0
19.04.2018 17:00:00 10,5 9,9 22 12 38 20 N 1024,0 - 0,0
19.04.2018 16:00:00 10,9 10,3 27 14 35 19 N 1023,8 - 0,0
19.04.2018 15:00:00 11,0 10,2 24 13 35 19 N 1023,9 - 0,0
19.04.2018 14:00:00 13,8 11,3 17 9 27 14 NNW 1023,8 20 0,0
19.04.2018 13:00:00 13,7 11,0 14 8 23 12 N 1024,0 - 0,0
19.04.2018 12:00:00 14,0 11,0 16 9 21 12 N 1024,0 - 0,0
19.04.2018 11:00:00 14,1 10,5 11 6 16 9 NNW 1023,9 11 0,0
19.04.2018 10:00:00 14,3 11,4 9 5 15 8 NW 1023,6 - 0,0
19.04.2018 09:00:00 12,3 11,2 7 4 13 7 WNW 1023,1 - 0,2
19.04.2018 08:00:00 10,1 8,9 13 7 18 10 W 1022,5 8 0,0
19.04.2018 07:00:00 10,1 9,3 15 8 17 9 WSW 1022,4 - 0,0
19.04.2018 06:00:00 10,9 10,3 12 6 14 7 SW 1022,2 - 0,0
19.04.2018 05:00:00 10,6 10,1 14 7 15 8 SW 1022,3 20 0,0
19.04.2018 04:00:00 10,2 9,7 16 8 23 12 SW 1022,2 - 0,2
19.04.2018 03:00:00 10,3 9,8 12 6 19 10 SSW 1022,3 - 0,0
19.04.2018 02:00:00 10,4 9,9 10 5 16 8 S 1022,1 15 0,0
19.04.2018 01:00:00 10,2 9,6 13 7 16 9 SSW 1022,1 - 0,0
19.04.2018 00:00:00 10,5 9,7 18 10 25 14 SW 1022,3 - 0,0
18.04.2018 23:00:00 10,7 9,6 14 8 22 12 S 1022,0 18 0,0
18.04.2018 22:00:00 11,2 9,9 20 11 35 19 SSW 1021,6 - 0,0
18.04.2018 21:00:00 12,1 9,8 29 16 43 23 SSW 1021,1 - 0,0
18.04.2018 20:00:00 13,8 9,6 33 18 49 27 SSW 1020,9 20 0,0
18.04.2018 19:00:00 15,3 8,5 27 15 49 26 SSE 1020,1 - 0,0
18.04.2018 18:00:00 15,7 8,9 25 14 65 35 SSE 1020,4 - 0,0
18.04.2018 17:00:00 16,5 8,9 32 17 59 32 SSE 1020,3 20 0,0
18.04.2018 16:00:00 16,9 9,3 29 16 66 36 SSE 1020,8 - 0,0
18.04.2018 15:00:00 17,9 9,3 27 15 72 39 SSE 1020,9 - 0,0
18.04.2018 14:00:00 18,5 8,2 40 22 67 36 SE 1021,1 20 0,0
18.04.2018 13:00:00 18,7 11,3 37 20 61 33 SE 1021,4 - 0,0
18.04.2018 12:00:00 16,6 10,4 48 26 68 37 SE 1021,5 - 0,0
18.04.2018 11:00:00 15,4 10,0 41 22 56 30 SE 1022,1 - 0,0
18.04.2018 10:00:00 13,9 9,7 38 20 56 31 SE 1022,6 - 0,0
18.04.2018 09:00:00 12,6 10,0 40 21 56 30 SE 1022,6 - 0,0
18.04.2018 08:00:00 11,4 9,8 35 19 52 28 SE 1022,8 4,0 0,0
18.04.2018 07:00:00 11,2 9,8 27 15 44 24 SE 1023,2 - 0,0
18.04.2018 06:00:00 11,5 9,9 23 13 48 26 SSE 1023,3 - 0,0
18.04.2018 05:00:00 11,4 10,0 25 13 52 28 SSE 1023,3 15 0,0
18.04.2018 04:00:00 11,8 9,9 36 20 50 27 S 1023,3 - 0,0
18.04.2018 03:00:00 11,5 9,7 34 19 53 28 S 1023,3 - 0,0
18.04.2018 02:00:00 11,7 9,8 37 20 55 30 S 1023,3 - 0,0
18.04.2018 01:00:00 12,3 10,9 39 21 59 32 S 1023,0 - 0,0
18.04.2018 00:00:00 11,8 10,5 32 17 54 29 S 1022,6 - 0,0
17.04.2018 23:00:00 12,3 10,7 31 17 59 32 S 1022,2 6 0,0
17.04.2018 22:00:00 12,4 10,5 38 20 61 33 S 1021,5 - 0,0
17.04.2018 21:00:00 12,8 10,7 34 19 61 33 S 1020,9 - 0,0
17.04.2018 20:00:00 12,7 10,4 39 21 60 33 S 1020,4 6 0,0
17.04.2018 19:00:00 13,0 10,5 38 21 62 33 S 1019,9 - 0,0
17.04.2018 18:00:00 13,4 10,7 39 21 64 34 S 1019,7 - 0,0
17.04.2018 17:00:00 13,5 10,7 42 23 - - S 1019,3 6 0,0
17.04.2018 16:00:00 13,3 10,5 41 22 76 41 S 1019,1 - 0,0
17.04.2018 15:00:00 13,8 10,8 49 27 71 39 S 1018,5 - 0,0

tt = temperature
td = dewpoint
ff = wind speed
fx = gusts
dd = wind direction
ppp = reduced air pressure
vv = visibility
rr = precipitation

Next stations